Content
SEND FEEDBACK

Daily
Averages
Monthly
Summary
United States of America

BERKELEY, MISSOURI


Home > North America > United States > Missouri
Elevation: 564 feet     Latitude: 38 45N     Longitude: 090 22W

WEATHER
 
SELECT A DAY
Number of Records: 206,743;   Date Range: 1/1/95 - 10/30/14
 
SHARE

PRINT THIS DATA

[ ← Previous Day ]
WEATHER ALMANAC - FEBRUARY 3, 2013
[ Next Day → ]
[ °C ]   °F
Weather ElementAverageHighLow
Temperature30.7 °F33.8 °F (1:51 pm)27 °F (6:51 pm)
Dewpoint21.7 °F28.9 °F (12:51 am)14 °F (6:51 pm)
Humidity70.9 %93 % (1:48 am)48 % (3:51 pm)
Barometer30.10 in30.22 in (10:51 am)30.01 in (11:51 pm)
Wind Speed8.5 mph24.2 mph (8:51 am)
Wind Gust29.9 mph (8:51 am)
Weather ElementAverage
Visibility7.9 mi
Wind DirectionSSW (191.6 °)

Weather ElementTotal
Precipitation0.28 in
Heating Degree Days34.6 (Base 65)
Averaged from 31 records on February 3, 2013
WEATHER CONDITIONS BREAKOUT
WIND DIRECTION BREAKOUT
WEATHER BY HOUR - FEBRUARY 3, 2013
[ °C ]   °F
Local TimeTemperatureDewpointHumidityBarometerVisibilityWind DirectionWind SpeedGust SpeedPrecipitationEventsConditions
12:40 AM32.0 °F28.4 °F87 %30.04 in0.8 miSouth (190°)3.5 mph0.14 inSnowLight Snow
12:51 AM32.0 °F28.9 °F88 %30.06 in3.0 miSSW (210°)3.5 mph0.14 inSnowLight Snow
1:02 AM32.0 °F28.4 °F87 %30.03 in5.0 miCalm0.00 inSnowLight Snow
1:14 AM32.0 °F28.4 °F87 %30.03 in5.0 miCalm0.00 inOvercast
1:48 AM30.2 °F28.4 °F93 %30.03 in5.0 miCalm0.00 inOvercast
1:51 AM30.9 °F28.0 °F89 %30.05 in5.0 miCalm0.00 inOvercast
2:14 AM28.4 °F26.6 °F93 %30.03 in3.0 miCalmOvercast
2:49 AM30.2 °F26.6 °F86 %30.03 in4.0 miSW (230°)4.6 mphOvercast
2:51 AM30.0 °F27.0 °F88 %30.05 in4.0 miSW (230°)4.6 mphOvercast
3:26 AM30.2 °F26.6 °F86 %30.02 in5.0 miWSW (250°)8.1 mphMostly Cloudy
3:51 AM28.9 °F26.1 °F89 %30.05 in6.0 miWest (260°)9.2 mphMostly Cloudy
4:51 AM30.9 °F26.1 °F82 %30.06 in9.0 miWest (280°)10.4 mphMostly Cloudy
5:51 AM33.1 °F27.0 °F78 %30.07 in9.0 miWNW (290°)13.8 mphMostly Cloudy
6:51 AM30.9 °F24.1 °F76 %30.09 in10.0 miWNW (290°)13.8 mphScattered Clouds
7:51 AM30.9 °F24.1 °F76 %30.12 in10.0 miWNW (290°)13.8 mph24.2 mphScattered Clouds
8:51 AM30.0 °F21.9 °F72 %30.14 in10.0 miWNW (290°)24.2 mph29.9 mphMostly Cloudy
9:51 AM30.0 °F21.0 °F69 %30.18 in10.0 miWNW (290°)19.6 mph27.6 mphOvercast
10:51 AM30.0 °F18.0 °F61 %30.22 in10.0 miNW (310°)17.3 mph26.5 mphMostly Cloudy
11:51 AM30.9 °F16.0 °F54 %30.22 in10.0 miNW (320°)17.3 mph26.5 mphPartly Cloudy
12:51 PM33.1 °F16.0 °F50 %30.22 in10.0 miWNW (300°)17.3 mph25.3 mphPartly Cloudy
1:51 PM33.8 °F17.6 °F52 %30.17 in10.0 miWNW (290°)11.5 mphClear
2:51 PM33.1 °F17.1 °F52 %30.20 in10.0 miWNW (290°)8.1 mphClear
3:51 PM33.1 °F15.1 °F48 %30.19 in10.0 miWest (280°)5.8 mphPartly Cloudy
4:51 PM32.0 °F15.1 °F50 %30.18 in10.0 miWNW (300°)5.8 mphPartly Cloudy
5:51 PM30.0 °F15.1 °F54 %30.16 in10.0 miCalmPartly Cloudy
6:51 PM27.0 °F14.0 °F58 %30.16 in10.0 miESE (120°)5.8 mphPartly Cloudy
7:51 PM27.0 °F15.1 °F61 %30.14 in10.0 miESE (120°)8.1 mphPartly Cloudy
8:51 PM30.0 °F15.1 °F54 %30.12 in10.0 miSE (130°)8.1 mphScattered Clouds
9:51 PM30.0 °F15.1 °F54 %30.09 in10.0 miSE (140°)10.4 mphMostly Cloudy
10:51 PM30.0 °F17.1 °F59 %30.06 in10.0 miSE (130°)11.5 mphMostly Cloudy
11:51 PM28.4 °F17.6 °F64 %30.01 in10.0 miESE (110°)6.9 mphMostly Cloudy
Hourly data recorded from KSTL, located miles away from Berkeley, Missouri







STORIES FROM OUR PARTNERS